DW6004 Weather Reports


time (UTC)temp
F
wind
direction
speed
knots
gust
knots
rain 1hr
in
rain 24hr
in
rain mn
in
humidity
%
barometer
mb
20260505035503 60 167 1.7 5.2 0.00 0.00 0.00 57 1009.3
20260505035004 60 163 1.7 6.1 0.00 0.00 0.00 56 1009.3
20260505034524 60 173 1.7 6.1 0.00 0.00 0.00 56 1009.3
20260505034004 61 178 1.7 6.1 0.00 0.00 0.00 56 1009.3
20260505033503 61 164 1.7 6.1 0.00 0.00 0.00 56 1009.4
20260505033003 61 157 1.7 6.1 0.00 0.00 0.00 56 1009.4
20260505032503 61 162 1.7 7.0 0.00 0.00 0.00 55 1009.3
20260505032004 61 162 1.7 7.0 0.00 0.00 0.00 54 1009.4
20260505031503 61 165 0.9 5.2 0.00 0.00 0.00 54 1009.2
20260505031004 62 180 1.7 5.2 0.00 0.00 0.00 53 1009.6
20260505030504 62 187 1.7 5.2 0.00 0.00 0.00 53 1009.4
20260505030024 62 184 1.7 5.2 0.00 0.00 0.00 53 1009.7
20260505025504 62 173 1.7 5.2 0.00 0.00 0.00 54 1009.6
20260505025004 62 176 1.7 7.0 0.00 0.00 0.00 53 1009.4
20260505024503 62 174 1.7 7.0 0.00 0.00 0.00 53 1009.5
20260505024004 63 167 1.7 7.0 0.00 0.00 0.00 52 1009.5
20260505023503 63 170 1.7 7.0 0.00 0.00 0.00 52 1009.4
20260505023003 63 171 1.7 7.0 0.00 0.00 0.00 52 1009.4
20260505022504 63 169 2.6 7.8 0.00 0.00 0.00 52 1009.3
20260505022004 63 172 1.7 7.8 0.00 0.00 0.00 52 1009.6
20260505021504 63 163 1.7 7.8 0.00 0.00 0.00 51 1009.6
20260505021004 64 167 2.6 11.3 0.00 0.00 0.00 51 1009.4
20260505020503 64 178 2.6 11.3 0.00 0.00 0.00 51 1009.5
20260505020004 64 170 3.5 9.6 0.00 0.00 0.00 51 1009.5
20260505015524 64 167 2.6 9.6 0.00 0.00 0.00 50 1009.5
20260505015004 64 175 1.7 7.8 0.00 0.00 0.00 49 1009.3
20260505014503 64 159 1.7 7.8 0.00 0.00 0.00 47 1009.5
20260505014004 64 167 0.9 5.2 0.00 0.00 0.00 43 1009.4
20260505013504 65 192 1.7 5.2 0.00 0.00 0.00 43 1009.4
20260505013004 65 193 1.7 5.2 0.00 0.00 0.00 43 1009.3
20260505012524 65 191 1.7 5.2 0.00 0.00 0.00 43 1009.1
20260505012024 65 197 1.7 5.2 0.00 0.00 0.00 42 1009.0
20260505011525 65 195 1.7 6.1 0.00 0.00 0.00 42 1009.0
20260505011024 66 186 1.7 6.1 0.00 0.00 0.00 42 1009.0
20260505010503 66 189 1.7 5.2 0.00 0.00 0.00 41 1008.8
20260505010024 66 203 2.6 7.8 0.00 0.00 0.00 41 1008.7
20260505005504 66 208 3.5 8.7 0.00 0.00 0.00 41 1008.9
20260505005004 67 204 2.6 8.7 0.00 0.00 0.00 40 1008.6
20260505004503 67 206 2.6 8.7 0.00 0.00 0.00 40 1008.5
20260505004003 67 204 3.5 8.7 0.00 0.00 0.00 40 1008.7
20260505003525 67 203 2.6 7.8 0.00 0.00 0.00 40 1008.6
20260505003003 67 205 2.6 7.8 0.00 0.00 0.00 39 1008.4
20260505002504 68 207 3.5 7.8 0.00 0.00 0.00 39 1008.3
20260505002003 68 206 3.5 7.8 0.00 0.00 0.00 39 1008.4
20260505001524 68 203 3.5 8.7 0.00 0.00 0.00 39 1008.1
20260505001003 68 206 4.3 8.7 0.00 0.00 0.00 38 1008.2
20260505000504 69 206 3.5 8.7 0.00 0.00 0.00 38 1007.9
20260505000003 69 202 2.6 8.7 0.00 0.00 0.00 38 1007.8
20260504235503 69 205 3.5 8.7 0.00 0.00 0.00 38 1007.8
20260504235003 69 207 3.5 8.7 0.00 0.00 0.00 38 1007.7
20260504234504 69 205 3.5 9.6 0.00 0.00 0.00 37 1007.7
20260504234004 70 211 3.5 9.6 0.00 0.00 0.00 37 1007.7
20260504233503 70 208 4.3 13.0 0.00 0.00 0.00 37 1007.8
20260504233003 70 202 5.2 13.0 0.00 0.00 0.00 37 1007.5
20260504232503 70 206 4.3 11.3 0.00 0.00 0.00 36 1007.2
20260504232003 71 212 3.5 11.3 0.00 0.00 0.00 36 1007.5
20260504231503 71 212 3.5 9.6 0.00 0.00 0.00 36 1007.1
20260504231003 71 209 5.2 13.0 0.00 0.00 0.00 35 1007.4
20260504230504 72 211 6.1 13.0 0.00 0.00 0.00 35 1007.2
20260504230005 72 205 6.1 13.0 0.00 0.00 0.00 34 1007.3
20260504225504 73 202 6.1 15.6 0.00 0.00 0.00 34 1007.2
20260504225003 73 210 5.2 15.6 0.00 0.00 0.00 34 1007.2
20260504224503 73 214 5.2 13.9 0.00 0.00 0.00 34 1007.1
20260504224024 73 210 4.3 13.9 0.00 0.00 0.00 33 1007.3
20260504223504 74 214 4.3 9.6 0.00 0.00 0.00 33 1007.4
20260504223024 74 223 5.2 9.6 0.00 0.00 0.00 33 1007.2
20260504222503 74 215 5.2 12.2 0.00 0.00 0.00 32 1007.0
20260504222003 74 214 6.1 15.6 0.00 0.00 0.00 33 1007.3
20260504221503 74 214 5.2 15.6 0.00 0.00 0.00 32 1007.3
20260504221004 74 204 5.2 14.8 0.00 0.00 0.00 33 1007.5
20260504220503 74 217 6.1 14.8 0.00 0.00 0.00 32 1007.2
20260504220004 74 222 5.2 13.9 0.00 0.00 0.00 31 1007.4
20260504215504 75 223 5.2 14.8 0.00 0.00 0.00 32 1007.4
20260504215004 75 227 6.1 14.8 0.00 0.00 0.00 31 1007.5
20260504214524 75 224 6.1 15.6 0.00 0.00 0.00 33 1007.5
20260504214003 75 218 5.2 15.6 0.00 0.00 0.00 31 1007.7
20260504213504 74 218 5.2 13.9 0.00 0.00 0.00 32 1007.5
20260504213024 74 225 6.1 13.9 0.00 0.00 0.00 33 1007.8
20260504212503 75 220 6.1 14.8 0.00 0.00 0.00 30 1007.7
20260504212003 75 212 5.2 15.6 0.00 0.00 0.00 33 1007.6
20260504211503 74 211 5.2 15.6 0.00 0.00 0.00 32 1007.6
20260504211003 74 207 6.1 14.8 0.00 0.00 0.00 33 1007.4
20260504210503 74 213 6.1 14.8 0.00 0.00 0.00 32 1007.7
20260504210004 75 223 5.2 12.2 0.00 0.00 0.00 32 1007.8
20260504205503 75 216 6.1 15.6 0.00 0.00 0.00 32 1007.8
20260504205003 75 224 7.0 20.0 0.00 0.00 0.00 32 1007.8
20260504204524 75 229 7.0 20.0 0.00 0.00 0.00 31 1007.6
20260504204024 75 218 7.0 19.1 0.00 0.00 0.00 32 1007.7
20260504203504 75 205 6.1 19.1 0.00 0.00 0.00 31 1007.9
20260504203003 75 204 5.2 13.9 0.00 0.00 0.00 32 1007.7
20260504202503 75 221 7.0 18.2 0.00 0.00 0.00 34 1007.7
20260504202003 75 222 7.0 18.2 0.00 0.00 0.00 31 1007.8
20260504201503 75 206 5.2 13.9 0.00 0.00 0.00 34 1007.7
20260504201004 75 209 4.3 13.9 0.00 0.00 0.00 34 1007.8
20260504200504 75 223 5.2 14.8 0.00 0.00 0.00 33 1007.8
20260504200003 75 223 7.0 15.6 0.00 0.00 0.00 33 1007.9
20260504195503 75 216 6.1 15.6 0.00 0.00 0.00 33 1008.2
20260504195003 75 206 5.2 19.1 0.00 0.00 0.00 34 1008.1
20260504194503 75 205 5.2 19.1 0.00 0.00 0.00 34 1008.3
20260504194003 74 206 5.2 12.2 0.00 0.00 0.00 34 1008.1
20260504193504 74 200 5.2 16.5 0.00 0.00 0.00 32 1008.3
20260504193004 74 191 5.2 18.2 0.00 0.00 0.00 34 1008.0
20260504192504 74 188 7.0 18.2 0.00 0.00 0.00 36 1008.4
20260504192004 74 204 7.8 16.5 0.00 0.00 0.00 34 1008.4
20260504191503 74 224 7.8 15.6 0.00 0.00 0.00 35 1008.5
20260504191004 74 223 7.0 15.6 0.00 0.00 0.00 33 1008.4
20260504190504 74 213 6.1 13.9 0.00 0.00 0.00 32 1008.5
20260504190024 73 214 7.8 14.8 0.00 0.00 0.00 35 1008.9
20260504185503 73 214 7.0 14.8 0.00 0.00 0.00 33 1008.8
20260504185003 73 223 7.0 16.5 0.00 0.00 0.00 36 1008.9
20260504184503 73 224 7.0 16.5 0.00 0.00 0.00 33 1008.9
20260504184003 73 220 7.0 18.2 0.00 0.00 0.00 34 1008.9
20260504183504 73 211 6.1 18.2 0.00 0.00 0.00 35 1009.1
20260504183003 73 202 5.2 13.0 0.00 0.00 0.00 35 1008.9
20260504182503 73 214 5.2 12.2 0.00 0.00 0.00 36 1009.0
20260504182025 73 210 5.2 12.2 0.00 0.00 0.00 36 1009.0
20260504181503 72 206 6.1 15.6 0.00 0.00 0.00 38 1009.1
20260504181004 72 211 7.0 15.6 0.00 0.00 0.00 36 1009.1
20260504180503 72 203 7.0 18.2 0.00 0.00 0.00 34 1009.5
20260504180003 72 194 7.8 19.1 0.00 0.00 0.00 36 1009.3
20260504175504 72 206 7.0 19.1 0.00 0.00 0.00 38 1009.5
20260504175004 71 216 6.1 18.2 0.00 0.00 0.00 36 1009.2
20260504174524 71 209 7.0 18.2 0.00 0.00 0.00 36 1009.4
20260504174025 71 213 8.7 19.1 0.00 0.00 0.00 36 1009.6
20260504173503 71 222 8.7 19.1 0.00 0.00 0.00 35 1009.7
20260504173004 71 234 7.8 16.5 0.00 0.00 0.00 36 1009.6
20260504172504 71 244 7.8 14.8 0.00 0.00 0.00 35 1009.7
20260504172003 71 238 7.8 14.8 0.00 0.00 0.00 32 1009.9
20260504171525 71 221 8.7 21.7 0.00 0.00 0.00 34 1009.7
20260504171004 71 221 7.8 21.7 0.00 0.00 0.00 34 1010.1
20260504170503 71 242 6.1 14.8 0.00 0.00 0.00 37 1010.0
20260504151024 67 228 6.1 14.8 0.00 0.00 0.00 37 1011.4
20260504150503 67 209 7.0 18.2 0.00 0.00 0.00 38 1011.4
20260504141003 64 222 8.7 19.1 0.00 0.00 0.00 38 1012.0
20260504140503 64 227 8.7 18.2 0.00 0.00 0.00 40 1011.8
20260504130525 60 241 5.2 12.2 0.00 0.00 0.00 43 1012.3
20260504110503 45 154 0.9 3.5 0.00 0.00 0.00 64 1012.6
20260504100503 43 161 0.9 2.6 0.00 0.00 0.00 61 1012.4
20260504081524 50 245 2.6 11.3 0.00 0.00 0.00 50 1012.1
20260504081024 50 243 3.5 11.3 0.00 0.00 0.00 50 1012.1
20260504080503 50 240 3.5 7.0 0.00 0.00 0.00 51 1012.1
20260504050503 48 236 3.5 11.3 0.00 0.00 0.00 54 1011.6
20260504050004 47 238 3.5 7.0 0.00 0.00 0.00 55 1011.7
20260504045503 46 234 2.6 6.1 0.00 0.00 0.00 57 1011.5
20260504045003 45 232 2.6 5.2 0.00 0.00 0.00 58 1011.5
20260504044504 45 231 1.7 3.5 0.00 0.00 0.00 59 1011.4
20260504044003 45 229 1.7 3.5 0.00 0.00 0.00 59 1011.5
20260504043504 44 226 1.7 3.5 0.00 0.00 0.00 60 1011.4
20260504043004 44 225 1.7 3.5 0.00 0.00 0.00 61 1011.3
20260504042504 44 230 1.7 3.5 0.00 0.00 0.00 61 1011.4
20260504042003 43 235 1.7 2.6 0.00 0.00 0.00 61 1011.2
20260504041503 43 235 1.7 3.5 0.00 0.00 0.00 62 1011.1
20260504041003 43 235 0.9 3.5 0.00 0.00 0.00 62 1011.3
20260504040503 42 233 0.9 2.6 0.00 0.00 0.00 61 1011.0